Moose, Wyoming, United States (83012)
Lat: 43.66N, Lon: 110.72W
Wx Zone: WYZ013
Local Info
Past Weather Observations for Sunday, May 1, 2016

NOTE: This archive is for the closest National Weather Service station to Moose. Information may differ from the station used for current weather conditions.

Click here for Long-term Archive

Time Weather Temperature Dewpoint Humidity Pressure Winds Precip Visibility
23:55
Clear
34°F / 1°C 25°F / -4°C 70% 30.24 in
(1024 mb)
N 9.2 mph
(N 15 kph)
- 10SM
23:35
Clear
36°F / 2°C 25°F / -4°C 65% 30.24 in
(1024 mb)
N 12.7 mph
(N 20 kph)
- 10SM
23:15
Clear
36°F / 2°C 25°F / -4°C 65% 30.24 in
(1024 mb)
N 16.1 mph
(N 26 kph)
- 10SM
22:55
Clear
37°F / 3°C 23°F / -5°C 56% 30.24 in
(1024 mb)
N 12.7 mph
(N 20 kph)
- 10SM
22:35
Clear
37°F / 3°C 23°F / -5°C 56% 30.24 in
(1024 mb)
N 13.8 mph
(N 22 kph)
- 10SM
22:15
Clear
37°F / 3°C 23°F / -5°C 56% 30.24 in
(1024 mb)
N 15 mph
(N 24 kph)
- 10SM
21:55
Clear
39°F / 4°C 21°F / -6°C 48% 30.21 in
(1023 mb)
N 12.7 mph
(N 20 kph)
- 10SM
21:35
Clear
39°F / 4°C 19°F / -7°C 45% 30.21 in
(1023 mb)
N 11.5 mph
(N 19 kph)
- 10SM
21:15
Clear
43°F / 6°C 19°F / -7°C 39% 30.21 in
(1023 mb)
N 10.4 mph
(N 17 kph)
- 10SM
20:55
Clear
45°F / 7°C 18°F / -8°C 34% 30.21 in
(1023 mb)
N 11.5 mph
(N 19 kph)
- 10SM
20:35
Clear
45°F / 7°C 18°F / -8°C 34% 30.18 in
(1022 mb)
N 13.8 mph
(N 22 kph)
- 10SM
20:15
Clear
45°F / 7°C 18°F / -8°C 34% 30.18 in
(1022 mb)
N 16.1 mph
(N 26 kph)
- 10SM
19:55
Clear
45°F / 7°C 18°F / -8°C 34% 30.18 in
(1022 mb)
N 15 mph
(N 24 kph)
- 10SM
19:02
Clear
48°F / 9°C 18°F / -8°C 29% 30.18 in
(1022 mb)
NE 11.5 mph
(NE 19 kph)
- 10SM
17:49
Clear
54°F / 12°C 18°F / -8°C 24% 30.15 in
(1021 mb)
NE 18.4 mph
(NE 30 kph)
- 10SM
16:56
Clear
54°F / 12°C 18°F / -8°C 24% 30.15 in
(1021 mb)
NE 17.3 mph
(NE 28 kph)
- 10SM
15:54
Clear
55°F / 13°C 18°F / -8°C 23% 30.15 in
(1021 mb)
NE 17.3 mph
(NE 28 kph)
- 10SM
14:45
Partly Cloudy
54°F / 12°C 18°F / -8°C 24% 30.18 in
(1022 mb)
NE 16.1 mph
(NE 26 kph)
- 10SM
13:51
Clear
54°F / 12°C 18°F / -8°C 24% 30.18 in
(1022 mb)
NE 17.3 mph
(NE 28 kph)
- 10SM
12:48
Partly Cloudy
52°F / 11°C 18°F / -8°C 26% 30.21 in
(1023 mb)
NE 16.1 mph
(NE 26 kph)
- 10SM
11:51
Clear
52°F / 11°C 19°F / -7°C 28% 30.21 in
(1023 mb)
NNE 17.3 mph
(NNE 28 kph)
- 10SM
10:53
Clear
48°F / 9°C 19°F / -7°C 32% 30.24 in
(1024 mb)
NE 12.7 mph
(NE 20 kph)
- 10SM
09:45
Partly Cloudy
46°F / 8°C 19°F / -7°C 34% 30.24 in
(1024 mb)
NNE 11.5 mph
(NNE 19 kph)
- 10SM
08:45
Partly Cloudy
45°F / 7°C 19°F / -7°C 37% 30.27 in
(1025 mb)
NE 12.7 mph
(NE 20 kph)
- 10SM
07:50
Partly Cloudy
41°F / 5°C 19°F / -7°C 42% 30.27 in
(1025 mb)
N 13.8 mph
(N 22 kph)
- 10SM
06:50
Partly Cloudy
37°F / 3°C 23°F / -5°C 56% 30.27 in
(1025 mb)
N 11.5 mph
(N 19 kph)
- 10SM
05:45
Partly Cloudy
34°F / 1°C 23°F / -5°C 65% 30.24 in
(1024 mb)
NNW 10.4 mph
(NNW 17 kph)
- 10SM
05:35
Clear
34°F / 1°C 23°F / -5°C 65% 30.24 in
(1024 mb)
N 8.1 mph
(N 13 kph)
- 10SM
05:15
Clear
34°F / 1°C 23°F / -5°C 65% 30.24 in
(1024 mb)
N 10.4 mph
(N 17 kph)
- 10SM
04:55
Clear
36°F / 2°C 21°F / -6°C 56% 30.24 in
(1024 mb)
NNE 15 mph
(NNE 24 kph)
- 10SM
04:35
Clear
37°F / 3°C 21°F / -6°C 52% 30.24 in
(1024 mb)
NNE 16.1 mph
(NNE 26 kph)
- 10SM
04:15
Clear
37°F / 3°C 21°F / -6°C 52% 30.24 in
(1024 mb)
NE 15 mph
(NE 24 kph)
- 10SM
03:55
Clear
37°F / 3°C 21°F / -6°C 52% 30.24 in
(1024 mb)
NE 11.5 mph
(NE 19 kph)
- 10SM
03:35
Clear
37°F / 3°C 21°F / -6°C 52% 30.24 in
(1024 mb)
NNE 12.7 mph
(NNE 20 kph)
- 10SM
03:15
Clear
37°F / 3°C 23°F / -5°C 56% 30.24 in
(1024 mb)
NNE 10.4 mph
(NNE 17 kph)
- 10SM
02:55
Clear
36°F / 2°C 25°F / -4°C 65% 30.21 in
(1023 mb)
NE 12.7 mph
(NE 20 kph)
- 10SM
02:35
Clear
37°F / 3°C 25°F / -4°C 60% 30.21 in
(1023 mb)
NNE 11.5 mph
(NNE 19 kph)
- 10SM
02:15
Clear
36°F / 2°C 27°F / -3°C 70% 30.21 in
(1023 mb)
N 13.8 mph
(N 22 kph)
- 10SM
01:55
Clear
37°F / 3°C 27°F / -3°C 65% 30.21 in
(1023 mb)
N 15 mph
(N 24 kph)
- 10SM
01:35
Clear
36°F / 2°C 28°F / -2°C 75% 30.21 in
(1023 mb)
N 13.8 mph
(N 22 kph)
- 10SM
01:15
Clear
36°F / 2°C 28°F / -2°C 75% 30.21 in
(1023 mb)
N 15 mph
(N 24 kph)
- 10SM
00:55
Clear
36°F / 2°C 28°F / -2°C 75% 30.24 in
(1024 mb)
N 13.8 mph
(N 22 kph)
- 10SM
00:35
Clear
36°F / 2°C 28°F / -2°C 75% 30.21 in
(1023 mb)
N 15 mph
(N 24 kph)
- 10SM
00:15
Clear
36°F / 2°C 28°F / -2°C 75% 30.21 in
(1023 mb)
N 8.1 mph
(N 13 kph)
- 10SM
Time Weather Temperature Dewpoint Humidity Pressure Winds Precip Visibility


Weather for websites

WeatherForYou.com, LLC is not responsible for any damages or problems caused by this service. Current weather conditions are obtained from the closest station including government and personal stations which may have varying degrees of accuracy. Weather forecasts are derived from the NOAA NDFD. Like all things, this site belongs to Jesus Christ... He just trusts us to maintain it. If you have any questions or comments email webmaster@weatherforyou.com

Copyright © 2016, WeatherForYou.com LLC. All rights reserved.